Regional Weather Roundup
Issued by NWS New Orleans/Baton Rouge, LA

Home | Current Version | Previous Version | Text Only | Print | Product List | Glossary Off
Versions: 1 2 3 4 5 6 7 8 9 10 11 12 13 14 15 16 17 18 19 20 21 22 23 24 25 26 27 28 29 30 31 32 33 34 35 36 37 38 39 40 41 42 43 44 45 46 47 48 49 50

617
ASUS44 KLIX 171510
RWRLIX
NEW ORLEANS REGIONAL WEATHER ROUNDUP
NATIONAL WEATHER SERVICE NEW ORLEANS LA
1000 AM CDT THU APR 17 2014

NOTE: "FAIR" INDICATES FEW OR NO CLOUDS BELOW 12,000 FEET WITH NO
      SIGNIFICANT WEATHER AND/OR OBSTRUCTIONS TO VISIBILITY.
      SKY/WX - SKY CONDITION AND SIGNIFICANT WEATHER.
      TMP - AIR TEMPERATURE.     DP    - DEWPOINT TEMPERATURE.
      RH  - RELATIVE HUMIDITY.   PRES  - PRESSURE.
      HI  - HEAT INDEX.          WCI   - WIND CHILL INDEX.

*  THESE STATIONS ARE NOT NWS OR FAA STATIONS AND ARE NOT UNDER
   NWS QUALITY CONTROL.

LAZ038-040-048-061>063-065>067-069-171600-
SOUTHEAST LOUISIANA

CITY           SKY/WX    TMP DP  RH WIND       PRES   REMARKS
N.O. AUDUBON     N/A     67  54  61 MISG        N/A
N.O. INTL ARPT PTSUNNY   65  55  70 NE12      30.17S
N.O. LAKEFRONT CLOUDY    62  53  72 NE15      30.18S
N.O. DOWNTOWN*   N/A     63  52  67 NE7G16    30.18S
SLIDELL        CLOUDY    60  51  72 NE8       30.19S
BATON ROUGE    PTSUNNY   62  50  64 NE12      30.18S
BOOTHVILLE     MOSUNNY   67  61  81 NE6       30.16S
BELLE CHASSE   PTSUNNY   63  54  72 NE13      30.18R
BOGALUSA*        N/A     59  50  72 NE7       30.23S
GALLIANO*      CLOUDY    67  56  69 N7        30.16R
NEW ROADS*     PTSUNNY   60  51  70 E8G17     30.19R
GONZALES*        N/A     62  53  72 E8        30.17F
HAMMOND*       MOSUNNY   64  50  59 E9        30.20S
HOUMA*         CLOUDY    66  55  68 N12       30.16R
PORT FOURCHON* CLOUDY    66  59  77 NE9       30.17R

$$

MSZ070-080>082-171600-
SOUTHERN MISSISSIPPI

CITY           SKY/WX    TMP DP  RH WIND       PRES   REMARKS
MCCOMB         PTSUNNY   58  47  66 E7        30.21S
GULFPORT       CLOUDY    64  54  69 E10       30.21R
BILOXI         PTSUNNY   63  55  77 E14       30.21S
PASCAGOULA     CLOUDY    60  53  77 E14       30.22S
STENNIS ARPT*  PTSUNNY   64  54  68 E12       30.20S

$$

COASTAL OBSERVATIONS
LAKE AND NEARSHORE STATIONS

STATION/POSITION TIME  TEMP    WIND        PRES    WAVE
                       AIR SEA DIR/SP/G            HT/PER
                 (UTC) (F)     (DEG/KT/KT) (MB)    (FT/S)
PASCAGOULA       1500   60      70/ 17/ 21 1022.5
WAVELAND YACHT   1500   61 64   90/ 14/ 19 1021.6
GRAND ISLE       1500   66 66   70/  8/ 11 1021.3
SOUTHWEST PASS   1500   70 58   80/  7/  9 1021.0
NEW CANAL        1500   59 62   70/ 15/ 18 1022.0
SHELL BEACH      1500   62 61   60/ 18/ 21 1021.2

OFFSHORE STATIONS

STATION/POSITION TIME  TEMP    WIND        PRES    WAVE
                       AIR SEA DIR/SP/G            HT/PER
                 (UTC) (F)     (DEG/KT/KT) (MB)    (FT/S)
64 S DAUPHIN ISL 1444   67 71   80/ 21/ 25 1021.5

$$




USA.gov is the U.S. government's official web portal to all federal, state and local government web resources and services.